Location: Newark
(25.6108°S, 54.5803°W)
Time: 10:14:56
(UTC+00:00)

deb Explorer IX - Pass Details

Date: 27 October 2020
Orbit: 538 x 1104 km, 38.8° (Epoch: 23 November)

Event Time Altitude Azimuth Distance (km) Brightness Sun altitude
Rises 01:37:50 0° 230° (SW) 2,765 ? -43.9°
Enters shadow 01:38:32 - 227° (SW) 2,507 ? -44.0°
Reaches altitude 10° 01:40:33 10° 214° (SW) 1,828 - -44.2°
Maximum altitude 01:43:47 22° 162° (SSE) 1,222 - -44.7°
Drops below altitude 10° 01:47:01 10° 110° (ESE) 1,811 - -45.1°
Sets 01:49:41 0° 94° (E) 2,732 - -45.4°
